{"data":{"norad_id":59867,"intl_designator":"2024-098K","name":"STARLINK-31952","alt_names":[],"object_type":"PAYLOAD","status":"ACTIVE","operator":null,"country":"US","launch_date":"2024-05-24","launch_site_code":"AFETR","launch_vehicle":null,"mission":null,"orbit_class":"UNKNOWN","rcs_meters":null,"size_class":null,"mass_kg":null,"dimensions":null,"purposes":["comms"],"wikipedia_slug":null,"has_3d_model":false,"image_url":null,"decayed_at":null,"tle_current":{"epoch":"2026-05-25T04:27:59.305248Z","epoch_age_seconds":62490,"freshness":"FRESH","line1":"1 59867U 24098K   26145.18610307 -.00002160  00000+0 -69042-4 0  9997","line2":"2 59867  42.9995 206.1251 0001115 272.6838  87.3886 15.27556389113541","mean_motion":15.27556389,"eccentricity":0.0001115,"inclination_deg":42.9995,"raan_deg":206.1251,"arg_perigee_deg":272.6838,"mean_anomaly_deg":87.3886,"bstar":-6.9042e-5,"rev_number":11354,"period_min":94.268205767689,"perigee_km":482.35476664548,"apogee_km":483.88482691116,"semimajor_km":6861.2567967783,"source":"CELESTRAK","updated_at":"2026-05-25T13:38:19.092134Z"}}}